TimeGMT,TemperatureF,Dew PointF,Humidity,Sea Level PressureIn,VisibilityMPH,Wind Direction,Wind SpeedMPH,Gust SpeedMPH,PrecipitationIn,Events,Conditions,WindDirDegrees,DateUTC
12:20 AM,44.6,41.0,87,29.65,6.2,South,9.2,-,N/A,Rain,Light Rain,190,2014-01-15 00:20:00
12:50 AM,44.6,41.0,87,29.62,6.2,South,10.4,-,N/A,Rain,Light Rain,190,2014-01-15 00:50:00
1:20 AM,44.6,41.0,87,29.62,6.2,South,11.5,-,N/A,Rain,Light Rain,190,2014-01-15 01:20:00
1:50 AM,44.6,41.0,87,29.59,6.2,South,10.4,-,N/A,Rain,Light Rain,190,2014-01-15 01:50:00
2:20 AM,44.6,41.0,87,29.59,4.3,South,9.2,-,N/A,Rain,Light Rain,190,2014-01-15 02:20:00
2:50 AM,46.4,42.8,87,29.59,6.2,South,9.2,-,N/A,Rain,Light Rain,180,2014-01-15 02:50:00
3:20 AM,46.4,42.8,87,29.56,6.2,South,8.1,-,N/A,Rain,Light Rain Showers,190,2014-01-15 03:20:00
3:50 AM,46.4,44.6,93,29.56,6.2,SSW,8.1,-,N/A,Rain,Light Rain Showers,200,2014-01-15 03:50:00
4:20 AM,48.2,44.6,87,29.53,6.2,SSW,8.1,-,N/A,Rain,Light Rain,200,2014-01-15 04:20:00
4:50 AM,48.2,46.4,93,29.53,6.2,SSW,6.9,-,N/A,Rain,Light Rain,200,2014-01-15 04:50:00
5:20 AM,48.2,46.4,93,29.53,6.2,SSW,6.9,-,N/A,,Light Drizzle,210,2014-01-15 05:20:00
5:50 AM,50.0,46.4,87,29.50,6.2,SSW,6.9,-,N/A,,Overcast,210,2014-01-15 05:50:00
6:20 AM,50.0,46.4,87,29.50,6.2,SSW,8.1,-,N/A,,Overcast,210,2014-01-15 06:20:00
6:50 AM,50.0,48.2,94,29.53,6.2,SW,8.1,-,N/A,,Mostly Cloudy,220,2014-01-15 06:50:00
7:20 AM,50.0,46.4,87,29.53,6.2,SW,9.2,-,N/A,,Mostly Cloudy,220,2014-01-15 07:20:00
7:50 AM,51.8,46.4,82,29.53,6.2,SW,9.2,-,N/A,,Mostly Cloudy,230,2014-01-15 07:50:00
8:20 AM,50.0,46.4,87,29.53,6.2,SW,8.1,-,N/A,,Mostly Cloudy,230,2014-01-15 08:20:00
8:50 AM,51.8,46.4,82,29.53,6.2,SSW,10.4,-,N/A,,Mostly Cloudy,210,2014-01-15 08:50:00
9:20 AM,51.8,46.4,82,29.53,6.2,SSW,5.8,-,N/A,,Scattered Clouds,200,2014-01-15 09:20:00
9:50 AM,51.8,46.4,82,29.50,5.6,SSW,10.4,-,N/A,,Scattered Clouds,210,2014-01-15 09:50:00
10:20 AM,51.8,48.2,88,29.50,6.2,SSW,10.4,-,N/A,,Mostly Cloudy,210,2014-01-15 10:20:00
10:50 AM,51.8,48.2,88,29.50,6.2,SSW,13.8,-,N/A,,Mostly Cloudy,210,2014-01-15 10:50:00
11:20 AM,51.8,48.2,88,29.50,6.2,SSW,10.4,-,N/A,,Mostly Cloudy,210,2014-01-15 11:20:00
12:20 PM,51.8,48.2,88,29.47,6.2,SSW,10.4,-,N/A,,Mostly Cloudy,210,2014-01-15 12:20:00
12:50 PM,53.6,48.2,82,29.47,6.2,SSW,11.5,-,N/A,,Mostly Cloudy,210,2014-01-15 12:50:00
1:20 PM,53.6,48.2,82,29.44,6.2,SSW,12.7,-,N/A,,Mostly Cloudy,210,2014-01-15 13:20:00
1:50 PM,51.8,48.2,88,29.44,2.5,SSW,9.2,-,N/A,Rain,Light Rain Showers,200,2014-01-15 13:50:00
2:20 PM,51.8,48.2,88,29.44,5.6,SSW,11.5,-,N/A,Rain,Light Rain,210,2014-01-15 14:20:00
2:50 PM,51.8,48.2,88,29.44,-9999.0,SW,12.7,-,N/A,,Mostly Cloudy,220,2014-01-15 14:50:00
3:20 PM,50.0,48.2,94,29.44,4.3,SW,15.0,-,N/A,Rain,Rain Showers,230,2014-01-15 15:20:00
3:50 PM,51.8,48.2,88,29.44,6.2,SSW,6.9,-,N/A,Rain,Light Rain,210,2014-01-15 15:50:00
4:20 PM,51.8,46.4,82,29.44,6.2,SSW,11.5,-,N/A,,Mostly Cloudy,210,2014-01-15 16:20:00
4:50 PM,51.8,46.4,82,29.44,6.2,SSW,11.5,-,N/A,,Scattered Clouds,200,2014-01-15 16:50:00
5:20 PM,51.8,46.4,82,29.42,6.2,South,9.2,-,N/A,,Mostly Cloudy,190,2014-01-15 17:20:00
5:50 PM,51.8,46.4,82,29.42,6.2,South,9.2,-,N/A,,Mostly Cloudy,190,2014-01-15 17:50:00
6:20 PM,51.8,46.4,82,29.42,6.2,SSW,9.2,-,N/A,,Mostly Cloudy,200,2014-01-15 18:20:00
6:50 PM,51.8,46.4,82,29.42,6.2,SSW,9.2,-,N/A,,Mostly Cloudy,200,2014-01-15 18:50:00
7:20 PM,51.8,46.4,82,29.42,6.2,South,8.1,-,N/A,,Overcast,190,2014-01-15 19:20:00
7:50 PM,51.8,46.4,82,29.42,6.2,South,9.2,-,N/A,Rain,Rain,190,2014-01-15 19:50:00
8:20 PM,51.8,46.4,82,29.39,6.2,SSW,6.9,-,N/A,Rain,Light Rain,200,2014-01-15 20:20:00
8:50 PM,51.8,46.4,82,29.39,6.2,SSW,9.2,-,N/A,Rain,Light Rain Showers,200,2014-01-15 20:50:00
9:20 PM,51.8,46.4,82,29.39,6.2,South,9.2,-,N/A,Rain,Light Rain Showers,190,2014-01-15 21:20:00
9:50 PM,51.8,46.4,82,29.36,6.2,South,10.4,-,N/A,,Mostly Cloudy,180,2014-01-15 21:50:00
10:20 PM,51.8,48.2,88,29.36,6.2,South,10.4,-,N/A,,Overcast,190,2014-01-15 22:20:00
10:50 PM,51.8,48.2,88,29.36,6.2,South,11.5,-,N/A,Rain,Light Rain,190,2014-01-15 22:50:00
11:20 PM,51.8,48.2,88,29.33,6.2,South,9.2,-,N/A,Rain,Light Rain,180,2014-01-15 23:20:00
11:50 PM,51.8,48.2,88,29.33,6.2,South,10.4,-,N/A,Rain,Light Rain,190,2014-01-15 23:50:00